SCP
0 0 0 0 0 0 0 0 0 0 0 0 0 0 0 0 0 0 0 0 0 0 0 0 0 0 0 0 0 0 0 0 0 0 0 0 0 0
0 0 0 0 0 0 0 0 0 0 0 0 0 0 0 0 0 0 0 0 0 0 0 0 0 0 0 0 0 0 0 0 0 0 0 0 0 0
0 0 0 0 0 0 0 0 0 0 0 0 0 0 0 0 0 0 0 0 0 0 0 0 0 0 0 0 0 0 0 0 0 0 0 0 0 0
0 0 0 0 0 0 0 0 0 0 0 0 0 0 0 0 0 0 0 0 0 0 0 0 0 0 0 0 0 0 0 0 0 0 0 0 0 0
0 0 0 0 0 0 0 0 0 0 0 0 0 0 0 0 0 0 0 0 0 0 0 0 0 -0 -0 0 0 0 0 0 0 0 0 0 0 0
0 0 0 0 0 0 0 0 0 0 0 0 0 0 0 0 0 0 0 0 0 0 0 0 0 0 0 0 0 0 0 0 0 0 0 0 0 0
0 0 0 0 0 0 0 0 0 0 0 0 0 0 0 0 0 0 0 0 0 0 0 0 0 0 0 0 0 0 0 0 0 0 0 0 0 0
0 0 0 0 0 0 0 0 0 0 0 0 0 0 0 0 0 0 0 0 0 0 0 0 0 0 0 0 0 0 0 0 0 0 0 0 0 0
0 0 0 0 0 0 0 0 0 0 0 0 0 0 0 0 0 0 0 0 0 0 0 0 0 0 0 0 0 0 0 0 0 0 0 0 0 0
0 0 0 0 0 0 0 0 0 0 0 0 0 0 0 0 0 0 0 0 0 0 0 0 0 0 0 0 0 0 0 0 0 0 0 0 0 0
0 0 0 0 0 0 0 0 0 0 0 0 0 0 0 0 0 0 0 0 0 0 0 0 0 0 0 0 0 0 0 0 0 0 0 0 0 0
0 0 0 0 0 0 0 0 0 0 0 0 0 0 0 0 0 0 0 0 0 0 0 0 0 0 0 0 0 0 0 0 0 0 0 0 0 0
0 0 0 0 0 0 0 0 0 0 0 0 0 0 0 0 0 0 0 0 0 0 0 0 0 0 0 0 0 0 0 0 0 0 0 0 0 0
0 0 0 0 0 0 0 0 0 0 0 0 0 0 0 0 0 0 0 0 0 0 0 0 0 0 0 0 0 0 0 0 0 0 0 0 0 0
0 0 0 0 0 0 0 0 0 0 0 0 0 -0 0 0 0 0 0 0 0 0 0 0 0 0 0 0 0 0 0 0 0 0 0 0 0 0
0 0 0 0 0 0 0 0 0 0 0 0 0 -0 0 0 0 0 0 0 0 0 0 0 0 0 0 0 0 0 0 0 0 0 0 0 0 0
0 0 0 0 0 0 0 0 0 0 0 0 0 0 0 0 0 0 0 0 0 0 0 0 0 0 0 0 0 0 0 0 0 0 0 0 0 0
0 0 0 0 0 0 0 0 0 0 0 0 0 0 0 0 0 0 0 0 0 0 0 0 0 0 0 0 0 0 0 0 0 0 0 0 0 0
0 0 0 0 0 0 0 0 0 0 0 0 0 0 0 0 0 0 0 0 0 0 0 0 0 0 0 0 0 0 0 0 0 0 0 0 0 0
0 0 0 0 0 0 0 0 0 0 0 0 0 0 0 0 0 0 0 0 0 0 0 0 0 0 0 0 0 0 0 0 0 0 0 0 0 0
0 0 0 0 0 0 0 0 0 0 0 0 0 0 0 0 0 0 0 0 0 0 0 0 0 0 0 0 0 0 0 0 0 0 0 0 0 0
0 0 0 0 0 0 0 0 0 0 0 0 0 0 0 0 0 0 0 0 0 0 0 0 0 0 0 0 0 0 0 0 0 0 0 0 0 0
0 0 0 0 0 0 0 0 0 0 0 0 0 0 0 0 0 0 0 0 0 0 0 0 0 0 0 0 0 0 0 0 0 0 0 0 0 0
Wind_Speed
2 2 2 2 2 2 3 4 5 6 5 4 3 3 3 3 5 4 6 9 8 7 6 6 6 5 5 5 5 5 4 3 2 2 2 2 3 4
4 5 4 3 3 3 3 2 2 4 5 4 3 4 4 5 5 4 5 9 7 6 6 6 6 6 6 5 5 5 4 3 2 1 0 1 2 3
6 6 6 5 4 4 4 4 4 5 7 5 4 6 5 5 5 4 5 5 6 7 6 6 6 6 6 6 6 5 4 4 3 2 2 1 2 3
8 8 7 6 6 5 4 4 4 4 8 9 7 6 6 6 6 5 4 3 4 8 6 6 6 6 6 6 6 5 5 4 4 3 3 3 3 4
9 9 8 7 7 6 5 5 5 6 6 8 8 6 6 5 6 4 4 2 3 7 8 8 7 7 6 6 6 6 6 5 4 4 4 4 4 5
10 10 9 8 8 6 5 6 6 7 8 7 7 6 5 5 4 4 4 3 2 3 4 4 7 9 8 8 8 7 6 6 6 5 5 5 5 5
10 11 11 12 12 8 6 6 6 6 6 6 6 6 5 4 3 2 2 3 3 2 2 4 5 6 8 10 10 8 7 6 6 6 6 6 6 6
10 10 10 11 12 13 13 12 8 5 5 5 5 5 5 4 2 1 2 2 2 2 2 2 2 3 3 3 7 7 6 6 6 7 7 7 7 7
9 8 8 9 8 10 10 11 12 11 7 3 5 5 5 4 2 2 1 1 2 1 2 2 2 2 2 4 8 6 6 6 7 7 7 8 8 8
9 9 9 9 9 7 8 9 9 8 6 5 5 4 4 3 1 0 1 2 3 2 2 2 1 2 2 3 10 7 7 7 7 8 8 9 9 9
9 10 9 9 9 7 6 7 8 6 7 7 6 5 5 3 3 2 1 2 1 2 1 2 1 2 2 2 7 11 9 9 9 9 9 9 9 10
7 8 11 9 9 9 5 6 7 6 5 6 5 4 4 3 2 3 3 2 2 0 1 2 2 2 2 1 2 5 7 10 11 11 11 10 9 8
6 6 7 7 7 8 6 6 5 3 2 3 3 3 3 2 2 1 2 3 3 2 1 3 3 3 3 3 2 2 2 2 6 8 11 12 11 9
5 6 7 5 5 5 5 5 4 5 0 1 2 2 1 1 1 1 1 3 3 4 4 5 4 4 5 5 3 2 2 3 3 3 2 9 11 12
5 6 3 1 2 3 4 2 4 1 2 2 2 2 2 2 1 1 2 3 5 5 4 4 5 5 5 5 5 4 3 3 3 3 3 3 4 5
3 5 4 2 1 2 2 1 1 4 3 2 2 1 1 0 1 1 2 2 3 2 3 4 4 5 6 6 5 5 4 3 3 3 4 5 5 5
3 1 2 2 2 2 2 2 2 1 1 2 2 2 1 1 1 1 2 3 3 2 2 2 4 6 7 7 6 5 4 4 4 3 5 6 5 4
5 1 2 2 2 3 2 2 2 2 3 2 2 2 2 2 2 2 2 3 3 3 3 3 4 5 5 4 4 6 5 4 4 4 6 6 6 4
3 1 2 2 2 2 2 3 3 3 2 3 2 2 2 2 3 3 3 3 3 4 4 4 4 5 6 5 2 5 5 5 6 6 5 5 6 5
1 2 1 2 2 2 2 2 2 2 2 2 2 2 3 3 3 3 3 4 4 5 5 4 4 4 6 7 6 4 7 6 6 6 6 6 6 4
2 2 2 2 2 2 2 2 2 2 3 3 2 3 3 3 4 4 4 2 5 5 5 5 3 3 6 6 6 5 3 6 5 5 7 8 7 6
1 1 2 2 2 2 2 2 2 2 2 3 2 3 3 4 4 5 5 5 5 5 6 5 4 5 6 6 7 6 5 4 7 12 11 8 7 7
1 2 2 1 1 2 2 2 2 2 3 3 3 3 4 4 4 5 5 6 6 6 6 6 5 5 6 6 7 7 7 7 6 5 6 11 15 15
Wind_Direction
67 75 73 78 101 120 136 154 151 149 142 139 138 148 144 136 137 150 138 131 137 141 140 141 144 147 149 152 149 145 138 129 120 93 61 37 27 19
56 64 65 68 75 97 115 112 120 137 129 130 129 145 151 144 145 149 135 142 153 157 154 157 165 169 173 175 174 173 170 170 173 171 168 13 6 358
63 68 66 66 76 85 96 104 111 122 125 122 128 139 148 143 139 150 156 170 151 156 162 168 175 181 187 189 189 188 190 192 198 209 232 275 308 319
63 67 67 70 74 78 92 104 110 120 133 132 136 143 145 144 146 166 159 163 148 142 162 174 182 187 193 195 195 197 200 202 209 222 241 263 278 289
58 61 65 72 75 76 87 101 111 118 124 131 133 135 144 151 161 165 153 163 174 153 171 181 187 192 197 198 200 204 207 210 218 227 241 257 269 276
58 58 58 62 68 79 89 100 112 121 127 130 133 140 143 150 168 162 160 170 177 172 174 179 179 193 199 201 204 206 211 218 225 231 238 248 260 268
66 63 63 61 54 52 69 88 109 121 129 132 137 141 139 152 159 161 156 175 168 193 211 196 186 198 189 199 202 202 212 221 228 231 235 242 249 256
72 73 77 72 71 66 62 60 61 92 114 128 130 125 125 127 114 164 173 193 163 145 249 221 213 212 204 182 149 176 206 222 228 230 234 239 244 249
65 64 68 69 72 83 86 86 71 59 57 73 102 105 120 118 141 160 107 345 24 62 269 229 206 233 224 128 147 183 208 223 229 232 235 238 242 245
67 66 67 62 48 50 82 84 82 70 56 70 82 83 85 86 83 53 157 201 202 190 256 266 214 238 251 160 161 191 210 223 231 235 237 239 243 246
67 58 58 66 32 12 78 90 91 95 89 73 65 70 60 36 340 274 235 251 203 150 203 287 288 276 256 217 169 189 207 218 226 233 237 241 245 248
87 80 61 46 26 11 63 83 88 87 97 116 122 153 160 154 214 282 313 316 322 47 101 294 312 307 287 249 229 192 207 210 217 224 228 234 240 254
82 80 70 43 35 23 23 57 49 3 104 127 135 139 149 160 180 188 332 322 333 346 9 305 319 316 308 299 280 261 268 242 213 212 216 221 224 243
60 64 73 51 47 35 43 41 330 292 236 105 100 89 85 71 64 5 331 315 302 299 310 312 304 310 304 302 300 281 263 259 269 278 243 189 217 228
60 62 59 55 194 120 86 324 289 301 53 64 62 58 50 40 319 240 227 239 251 248 246 260 281 296 297 298 303 303 297 277 254 270 280 270 260 234
116 137 178 224 217 97 166 202 28 31 6 22 29 23 3 317 289 316 295 279 276 240 200 228 254 279 285 296 294 293 291 286 279 277 295 286 267 256
337 175 152 134 114 76 67 55 45 79 19 358 342 325 322 323 327 319 313 306 304 307 289 236 229 239 259 275 291 296 295 289 283 288 282 282 280 268
306 28 51 38 30 36 36 47 50 30 8 346 333 329 336 333 329 321 310 311 312 311 312 308 297 286 274 241 246 283 293 298 296 284 279 284 291 290
274 34 39 28 19 16 16 20 28 30 350 328 334 329 325 327 320 317 321 319 314 314 310 304 303 304 307 312 242 241 293 309 302 295 285 283 290 300
323 37 31 14 5 358 0 6 5 355 341 338 336 327 324 320 315 314 317 327 321 316 310 307 311 319 318 319 312 276 224 271 299 304 305 298 288 264
34 33 16 5 3 354 346 345 335 333 347 328 325 323 319 313 313 313 312 317 293 299 307 311 335 259 277 278 283 291 268 209 247 282 300 300 301 295
10 8 13 360 345 328 318 308 295 295 296 291 315 311 304 302 304 302 304 304 299 303 307 305 297 274 275 283 292 296 294 276 228 227 246 265 296 310
347 331 312 291 290 289 306 324 316 309 309 310 310 306 304 302 300 295 294 295 299 303 303 303 303 296 293 294 293 295 296 294 290 265 235 214 227 242